CW4490 Weather Reports


Display with metric or nautical units.
time (UTC)temp
F
wind
direction
speed
MPH
gust
MPH
rain 1hr
in
rain 24hr
in
rain mn
in
humidity
%
barometer
mb
20190624145358 72 64 3.0 0.0 0.00 0.00 0.31 91 1010.7
20190624143346 72 355 2.0 0.0 0.00 0.00 0.31 91 1010.7
20190624141359 73 22 5.0 0.0 0.00 0.00 0.31 92 1010.5
20190624135346 74 44 3.0 0.0 0.00 0.00 0.31 93 1010.4
20190624133342 75 344 2.0 0.0 0.00 0.00 0.31 95 1009.6
20190624131354 74 153 2.0 0.0 0.00 0.00 0.31 97 1008.3
20190624130343 73 150 3.0 0.0 0.00 0.00 0.31 97 1008.2
20190624124402 73 154 1.0 0.0 0.00 0.00 0.31 97 1007.7
20190624122352 71 167 2.0 0.0 0.00 0.00 0.31 96 1007.4
20190624120357 71 149 1.0 0.0 0.00 0.00 0.31 96 1007.2
20190624113349 71 205 3.0 0.0 0.00 0.00 0.31 94 1007.0
20190624112346 72 143 7.0 0.0 0.00 0.00 0.31 96 1006.4
20190624105352 67 267 4.0 0.0 0.00 0.00 0.20 95 1007.7
20190624104347 67 192 3.0 0.0 0.00 0.00 0.20 94 1008.6
20190624102343 67 196 1.0 0.0 0.00 0.00 0.20 92 1008.3
20190624094344 67 13 4.0 0.0 0.00 0.00 0.18 89 1008.8
20190624091352 71 314 7.0 0.0 0.00 0.00 0.00 80 1007.5
20190624085343 81 65 3.0 0.0 0.00 0.00 0.00 81 1007.6
20190624084359 80 122 4.0 0.0 0.00 0.00 0.00 82 1007.2
20190624083356 81 127 4.0 0.0 0.00 0.00 0.00 82 1007.2
20190624075357 81 114 5.0 0.0 0.00 0.00 0.00 81 1006.4
20190624073349 81 132 7.0 0.0 0.00 0.00 0.00 81 1005.9
20190624070355 81 142 6.0 0.0 0.00 0.00 0.00 81 1006.3
20190624065350 81 159 6.0 0.0 0.00 0.00 0.00 81 1006.3
20190624063346 81 136 6.0 0.0 0.00 0.00 0.00 80 1006.0
20190624062343 81 129 6.0 0.0 0.00 0.00 0.00 80 1005.9
20190624061357 81 177 7.0 0.0 0.00 0.00 0.00 80 1006.0
20190624054344 82 172 4.0 0.0 0.00 0.00 0.00 79 1005.9
20190624053400 82 180 6.0 0.0 0.00 0.00 0.00 79 1005.9
20190624052355 82 138 7.0 0.0 0.00 0.00 0.00 79 1006.4
20190624051352 82 143 5.0 0.0 0.00 0.00 0.00 80 1006.5
20190624050346 82 163 6.0 0.0 0.00 0.00 0.00 80 1006.5
20190624044358 82 123 5.0 0.0 0.00 0.00 0.00 79 1006.3
20190624041349 82 124 6.0 0.0 0.00 0.00 0.00 79 1005.7
20190624033346 83 134 7.0 0.0 0.00 0.00 0.00 76 1005.7
20190624032346 84 134 9.0 0.0 0.00 0.00 0.00 76 1005.9
20190624031400 84 242 4.0 0.0 0.00 0.00 0.00 76 1005.8
20190624030350 84 168 4.0 0.0 0.00 0.00 0.00 75 1005.8
20190624025347 85 184 5.0 0.0 0.00 0.00 0.00 75 1005.4
20190624023337 85 155 6.0 0.0 0.00 0.00 0.00 74 1005.1
20190624021348 85 157 5.0 0.0 0.00 0.00 0.00 72 1004.5
20190624020354 85 140 5.0 0.0 0.00 0.00 0.00 72 1004.5
20190624015352 86 144 6.0 0.0 0.00 0.00 0.00 71 1004.2
20190624014347 86 160 7.0 0.0 0.00 0.00 0.00 70 1003.8
20190624012337 87 121 6.0 0.0 0.00 0.00 0.00 69 1003.7
20190624011351 87 153 5.0 0.0 0.00 0.00 0.00 67 1003.8
20190624010343 87 137 5.0 0.0 0.00 0.00 0.00 66 1003.8
20190624005339 88 129 6.0 0.0 0.00 0.00 0.00 65 1003.6
20190624004353 88 105 8.0 0.0 0.00 0.00 0.00 64 1003.6
20190624003349 88 136 6.0 0.0 0.00 0.00 0.00 64 1003.6
20190624002345 88 128 6.0 0.0 0.00 0.00 0.00 63 1003.7
20190624000347 90 135 6.0 0.0 0.00 0.00 0.00 58 1003.6
20190623235342 90 136 6.0 0.0 0.00 0.00 0.00 58 1003.4
20190623234337 91 132 7.0 0.0 0.00 0.00 0.00 57 1003.4
20190623233353 91 201 8.0 0.0 0.00 0.00 0.00 56 1003.4
20190623232352 91 146 6.0 0.0 0.00 0.00 0.00 57 1003.4
20190623223343 91 161 6.0 0.0 0.00 0.00 0.00 55 1004.3
20190623222338 92 107 5.0 0.0 0.00 0.00 0.00 54 1004.5
20190623220341 92 129 5.0 0.0 0.00 0.00 0.00 55 1004.7
20190623214353 93 238 4.0 0.0 0.00 0.00 0.00 55 1005.3
20190623213347 93 159 4.0 0.0 0.00 0.00 0.00 53 1005.3
20190623205340 91 132 5.0 0.0 0.00 0.00 0.00 56 1006.3
20190623204357 90 234 4.0 0.0 0.00 0.00 0.00 60 1006.4
20190623195348 89 208 4.0 0.0 0.00 0.00 0.00 60 1007.3
20190623193344 88 186 4.0 0.0 0.00 0.00 0.00 64 1007.6
20190623192341 86 229 4.0 0.0 0.00 0.00 0.00 65 1007.9
20190623191336 86 184 4.0 0.0 0.00 0.00 0.00 66 1008.0
20190623190345 87 192 3.0 0.0 0.00 0.00 0.00 65 1008.0
20190623185341 86 194 5.0 0.0 0.00 0.00 0.00 66 1008.3
20190623184341 85 209 5.0 0.0 0.00 0.00 0.00 67 1008.0
20190623182336 86 182 4.0 0.0 0.00 0.00 0.00 67 1008.2
20190623175342 85 174 4.0 0.0 0.00 0.00 0.00 69 1008.4
20190623174337 85 171 4.0 0.0 0.00 0.00 0.00 70 1008.2
20190623173334 84 184 4.0 0.0 0.00 0.00 0.00 71 1008.2
20190623171330 83 128 4.0 0.0 0.00 0.00 0.00 75 1008.5
20190623170339 82 184 4.0 0.0 0.00 0.00 0.00 76 1008.5
20190623164330 83 159 5.0 0.0 0.00 0.00 0.00 76 1008.6
20190623163346 82 125 5.0 0.0 0.00 0.00 0.00 76 1008.5
20190623162347 82 140 4.0 0.0 0.00 0.00 0.00 78 1008.5
20190623160333 82 117 4.0 0.0 0.00 0.00 0.00 78 1008.5
20190623155348 82 164 5.0 0.0 0.00 0.00 0.00 77 1008.5
20190623153342 82 114 5.0 0.0 0.00 0.00 0.00 76 1008.5